This demonstration page uses our WeatherBlox Daily Observations layout. Learn more.

Left ArrowRight Arrow

34.74481, -87.66753

Hourly Observations for April 24, 2017

Temp ( °F °C ) Dew Point ( °F °C ) Humidity (%) Winds ( mph kmh ) Pressure ( in mb ) Visibility ( mi km ) Precip ( " mm )
12:37 am 00:37 Cloudy 54 12.2 51 10.6 90 90 NNW 6 9 29.85 1011 9 14 0.00 0.00
12:53 am 00:53 Cloudy 54 12.2 51 10.6 90 90 N 5 7 29.84 1010 7 11 0.00 0.00
1:00 am 01:00 Cloudy with Mist and Fog 54 12.2 51 10.6 90 90 NNW 7 11 29.85 1011 4 6 0.00 0.00
1:25 am 01:25 Cloudy with Mist and Fog 54 12.2 51 10.6 90 90 N 6 9 29.85 1011 3 4 0.00 0.00
1:35 am 01:35 Cloudy with Mist and Fog 54 12.2 51 10.6 90 90 N 6 9 29.85 1011 6 10 0.00 0.00
1:53 am 01:53 Cloudy 54 12.2 51 10.6 90 90 VRB 5 7 29.82 1010 10 16 0.00 0.00
2:53 am 02:53 Cloudy 54 12.2 50 10 87 87 VRB 5 7 29.80 1009 10 16 0.00 0.00
3:08 am 03:08 Cloudy 54 12.2 50 10 87 87 VRB 6 9 29.83 1010 10 16 0.00 0.00
3:53 am 03:53 Cloudy 54 12.2 50 10 87 87 NE 5 7 29.79 1009 10 16 0.00 0.00
4:53 am 04:53 Cloudy 54 12.2 51 10.6 90 90 VRB 3 6 29.79 1009 10 16 0.00 0.00
5:53 am 05:53 Cloudy with Mist and Fog 54 12.2 51 10.6 90 90 NNW 5 7 29.81 1009 6 10 0.00 0.00
6:53 am 06:53 Cloudy with Mist and Fog 54 12.2 51 10.6 90 90 NNW 7 11 29.84 1010 4 6 0.00 0.00
7:53 am 07:53 Cloudy 55 12.8 51 10.6 87 87 NNW 5 7 29.86 1011 10 16 0.00 0.00
8:37 am 08:37 Mostly Cloudy 56 13.3 52 11.1 87 87 NNW 5 7 29.88 1012 10 16 0.00 0.00
8:53 am 08:53 Cloudy 57 13.9 52 11.1 83 83 NNW 6 9 29.87 1012 9 14 0.00 0.00
9:18 am 09:18 Cloudy 58 14.4 52 11.1 81 81 VRB 3 6 29.83 1010 10 16 0.00 0.00
9:40 am 09:40 Partly Cloudy 61 16.1 54 12.2 78 78 NNW 3 6 29.83 1010 7 11 0.00 0.00
9:53 am 09:53 Hazy 61 16.1 53 11.7 75 75 VRB 5 7 29.86 1011 6 10 0.00 0.00
10:25 am 10:25 Mostly Cloudy 62 16.7 51 10.6 67 67 NNW 7 11 29.85 1011 10 16 0.00 0.00
10:53 am 10:53 Mostly Cloudy 64 17.8 53 11.7 68 68 NNW 6 9 29.86 1011 10 16 0.00 0.00
11:08 am 11:08 Partly Cloudy 65 18.3 52 11.1 63 63 VRB 5 7 29.85 1011 10 16 0.00 0.00
11:16 am 11:16 Mostly Cloudy 65 18.3 53 11.7 66 66 VRB 7 11 29.85 1011 10 16 0.00 0.00
11:46 am 11:46 Partly Cloudy 65 18.3 52 11.1 63 63 VRB 5 7 29.83 1010 10 16 0.00 0.00
11:53 am 11:53 Mostly Sunny 65 18.3 52 11.1 63 63 N 6 9 29.85 1011 10 16 0.00 0.00
12:53 pm 12:53 Partly Cloudy 67 19.4 53 11.7 61 61 Calm 29.84 1011 10 16 0.00 0.00
1:53 pm 13:53 Cloudy 67 19.4 55 12.8 66 66 W 7 11 29.84 1010 10 16 0.00 0.00
2:53 pm 14:53 Cloudy 65 18.3 56 13.3 73 73 NNW 14 22 29.83 1010 10 16 0.00 0.00
3:41 pm 15:41 Cloudy 64 17.8 55 12.8 73 73 NW 12 19 29.83 1010 10 16 0.00 0.00
3:49 pm 15:49 Cloudy 66 19 55 13 68 68 NW 12 19 29.83 1010 10 16 0.00 0.00
3:53 pm 15:53 Cloudy 65 18.3 55 12.8 70 70 NNW 12 19 29.82 1010 10 16 0.00 0.00
4:53 pm 16:53 Sunny 66 18.9 55 12.8 68 68 VRB 6 9 29.80 1009 10 16 0.00 0.00
5:53 pm 17:53 Mostly Cloudy 63 17.2 53 11.7 70 70 N 6 9 29.80 1009 10 16 0.00 0.00
6:53 pm 18:53 Cloudy 62 16.7 52 11.1 70 70 N 8 13 29.79 1009 10 16 0.00 0.00
7:53 pm 19:53 Cloudy 62 16.7 52 11.1 70 70 E 3 6 29.78 1009 10 16 0.00 0.00
8:42 pm 20:42 Partly Cloudy 59 15 53 11.7 81 81 Calm 29.80 1009 10 16 0.00 0.00
8:53 pm 20:53 Mostly Clear 58 14.4 52 11.1 81 81 Calm 29.79 1009 10 16 0.00 0.00
9:53 pm 21:53 Clear 56 13.3 52 11.1 87 87 Calm 29.79 1009 10 16 0.00 0.00
10:53 pm 22:53 Clear 54 12.2 50 10 87 87 Calm 29.79 1009 10 16 0.00 0.00
11:53 pm 23:53 Clear 54 12.2 51 10.6 90 90 Calm 29.79 1009 10 16 0.00 0.00

Powered by AerisWeather